Total_Precipitation_Accumulation
0.00 0.00 0.00 0.00 0.00 0.00 0.00 0.00 0.00 0.00 0.00 0.00 0.00 0.01 0.02 0.02 0.03 0.04 0.04 0.03 0.03 0.03 0.03 0.03 0.03 0.04 0.05 0.06 0.08 0.10 0.12 0.14 0.14 0.09 0.08 0.12 0.15 0.14 0.13 0.10 0.09 0.15 0.29
0.00 0.00 0.00 0.00 0.00 0.00 0.00 0.00 0.00 0.00 0.01 0.01 0.01 0.02 0.03 0.03 0.03 0.04 0.04 0.04 0.04 0.04 0.05 0.06 0.06 0.07 0.07 0.08 0.11 0.12 0.13 0.17 0.22 0.20 0.18 0.24 0.26 0.23 0.23 0.19 0.14 0.14 0.22
0.00 0.00 0.00 0.00 0.00 0.00 0.01 0.01 0.01 0.01 0.01 0.02 0.03 0.04 0.04 0.03 0.03 0.04 0.05 0.05 0.05 0.06 0.07 0.08 0.09 0.11 0.12 0.13 0.17 0.20 0.21 0.23 0.29 0.30 0.28 0.34 0.39 0.38 0.35 0.26 0.18 0.14 0.14
0.00 0.00 0.00 0.01 0.01 0.01 0.01 0.01 0.01 0.02 0.03 0.04 0.04 0.04 0.03 0.03 0.04 0.05 0.04 0.04 0.05 0.07 0.10 0.13 0.15 0.18 0.19 0.20 0.22 0.22 0.23 0.26 0.29 0.33 0.35 0.41 0.45 0.43 0.33 0.28 0.21 0.16 0.17
0.00 0.00 0.01 0.01 0.02 0.02 0.02 0.02 0.02 0.03 0.04 0.04 0.03 0.03 0.03 0.03 0.03 0.03 0.03 0.04 0.07 0.09 0.10 0.11 0.14 0.18 0.19 0.20 0.20 0.19 0.22 0.27 0.28 0.34 0.38 0.40 0.38 0.36 0.28 0.20 0.15 0.13 0.17
0.01 0.01 0.01 0.02 0.02 0.02 0.03 0.03 0.05 0.04 0.03 0.03 0.03 0.02 0.02 0.02 0.03 0.05 0.05 0.06 0.10 0.11 0.11 0.09 0.08 0.10 0.12 0.14 0.19 0.19 0.20 0.29 0.43 0.50 0.42 0.34 0.25 0.19 0.14 0.10 0.11 0.12 0.13
0.01 0.02 0.02 0.02 0.02 0.03 0.04 0.06 0.05 0.04 0.03 0.02 0.01 0.01 0.01 0.02 0.03 0.04 0.05 0.07 0.10 0.11 0.11 0.08 0.05 0.04 0.07 0.08 0.13 0.16 0.20 0.26 0.35 0.51 0.48 0.29 0.24 0.16 0.12 0.11 0.15 0.20 0.19
0.02 0.02 0.02 0.02 0.03 0.04 0.05 0.05 0.03 0.02 0.02 0.01 0.01 0.00 0.01 0.01 0.02 0.02 0.03 0.05 0.07 0.10 0.09 0.06 0.05 0.04 0.07 0.14 0.13 0.12 0.15 0.19 0.25 0.33 0.49 0.35 0.22 0.21 0.18 0.16 0.20 0.23 0.20
0.02 0.02 0.02 0.03 0.03 0.03 0.03 0.02 0.02 0.02 0.02 0.01 0.00 0.00 0.01 0.01 0.01 0.01 0.02 0.02 0.04 0.07 0.06 0.05 0.04 0.04 0.11 0.20 0.21 0.20 0.22 0.27 0.34 0.50 0.59 0.55 0.44 0.39 0.31 0.24 0.21 0.15 0.12
0.03 0.03 0.03 0.03 0.02 0.01 0.01 0.01 0.02 0.02 0.02 0.01 0.00 0.00 0.00 0.00 0.00 0.00 0.01 0.02 0.03 0.03 0.03 0.03 0.05 0.08 0.14 0.23 0.28 0.26 0.24 0.30 0.29 0.40 0.54 0.58 0.50 0.52 0.50 0.34 0.20 0.09 0.08
0.02 0.03 0.02 0.02 0.01 0.00 0.01 0.01 0.01 0.01 0.00 0.00 0.00 0.00 0.00 0.00 0.00 0.00 0.00 0.00 0.00 0.01 0.01 0.03 0.08 0.11 0.14 0.25 0.31 0.26 0.28 0.31 0.29 0.28 0.29 0.33 0.37 0.40 0.41 0.38 0.25 0.11 0.07
0.01 0.01 0.00 0.00 0.00 0.00 0.00 0.00 0.00 0.00 0.00 0.00 0.00 0.00 0.00 0.00 0.00 0.00 0.00 0.00 0.00 0.00 0.01 0.05 0.12 0.11 0.10 0.18 0.23 0.28 0.37 0.39 0.29 0.25 0.21 0.19 0.20 0.24 0.27 0.24 0.18 0.13 0.09
0.00 0.00 0.00 0.00 0.00 0.00 0.00 0.00 0.00 0.00 0.00 0.00 0.00 0.00 0.00 0.00 0.00 0.00 0.00 0.00 0.00 0.00 0.01 0.06 0.11 0.09 0.09 0.15 0.24 0.32 0.37 0.35 0.31 0.25 0.20 0.19 0.18 0.17 0.18 0.20 0.20 0.15 0.10
0.00 0.00 0.00 0.00 0.00 0.00 0.00 0.00 0.00 0.00 0.00 0.00 0.00 0.00 0.00 0.01 0.00 0.00 0.00 0.00 0.00 0.00 0.01 0.06 0.10 0.10 0.09 0.13 0.20 0.24 0.26 0.26 0.23 0.22 0.22 0.23 0.21 0.17 0.16 0.16 0.14 0.10 0.07
0.00 0.00 0.00 0.00 0.00 0.00 0.00 0.00 0.00 0.00 0.00 0.00 0.00 0.00 0.01 0.01 0.00 0.00 0.00 0.00 0.00 0.00 0.01 0.04 0.07 0.09 0.09 0.12 0.17 0.19 0.18 0.16 0.14 0.12 0.15 0.21 0.24 0.20 0.17 0.14 0.10 0.05 0.02
0.00 0.00 0.00 0.00 0.00 0.00 0.00 0.00 0.00 0.00 0.00 0.00 0.00 0.00 0.00 0.00 0.00 0.00 0.00 0.00 0.00 0.00 0.00 0.01 0.02 0.04 0.09 0.17 0.22 0.20 0.15 0.10 0.07 0.07 0.09 0.13 0.16 0.14 0.13 0.11 0.06 0.03 0.02
0.00 0.00 0.00 0.00 0.00 0.00 0.00 0.00 0.00 0.00 0.00 0.00 0.00 0.00 0.00 0.00 0.00 0.00 0.00 0.00 0.00 0.01 0.01 0.01 0.01 0.03 0.08 0.17 0.24 0.25 0.19 0.12 0.07 0.06 0.07 0.08 0.08 0.08 0.07 0.06 0.05 0.03 0.02
0.00 0.00 0.00 0.00 0.00 0.00 0.00 0.00 0.00 0.00 0.00 0.00 0.00 0.00 0.00 0.00 0.00 0.00 0.00 0.01 0.01 0.01 0.02 0.02 0.02 0.02 0.04 0.10 0.18 0.23 0.24 0.18 0.12 0.10 0.09 0.09 0.08 0.07 0.06 0.03 0.02 0.02 0.01
0.00 0.00 0.00 0.00 0.00 0.00 0.00 0.00 0.00 0.00 0.00 0.00 0.00 0.00 0.00 0.00 0.01 0.02 0.01 0.02 0.03 0.03 0.03 0.03 0.03 0.03 0.03 0.04 0.09 0.15 0.19 0.19 0.15 0.12 0.10 0.11 0.10 0.07 0.04 0.02 0.01 0.01 0.00
0.00 0.00 0.00 0.00 0.00 0.00 0.00 0.00 0.00 0.00 0.00 0.00 0.01 0.01 0.01 0.01 0.01 0.03 0.03 0.03 0.04 0.04 0.04 0.04 0.03 0.03 0.03 0.03 0.05 0.09 0.14 0.16 0.16 0.14 0.13 0.12 0.10 0.05 0.03 0.01 0.01 0.01 0.01
0.00 0.00 0.00 0.00 0.00 0.00 0.00 0.00 0.00 0.00 0.00 0.00 0.01 0.01 0.01 0.01 0.02 0.03 0.04 0.04 0.05 0.06 0.05 0.04 0.04 0.03 0.03 0.03 0.04 0.07 0.12 0.14 0.16 0.18 0.18 0.15 0.09 0.04 0.03 0.02 0.01 0.01 0.00
0.00 0.00 0.00 0.00 0.00 0.00 0.00 0.00 0.00 0.00 0.00 0.00 0.00 0.00 0.00 0.01 0.01 0.02 0.04 0.05 0.06 0.07 0.06 0.05 0.04 0.04 0.04 0.04 0.04 0.05 0.09 0.12 0.17 0.22 0.21 0.16 0.09 0.04 0.02 0.02 0.01 0.01 0.01
0.00 0.00 0.00 0.00 0.00 0.00 0.00 0.00 0.00 0.00 0.00 0.00 0.00 0.00 0.00 0.01 0.01 0.02 0.04 0.05 0.07 0.08 0.07 0.06 0.05 0.05 0.04 0.04 0.04 0.05 0.07 0.11 0.16 0.21 0.20 0.14 0.07 0.03 0.02 0.02 0.01 0.01 0.00
0.00 0.00 0.00 0.00 0.00 0.00 0.00 0.00 0.00 0.00 0.00 0.00 0.00 0.00 0.00 0.01 0.01 0.03 0.04 0.06 0.07 0.08 0.07 0.07 0.06 0.06 0.05 0.04 0.05 0.06 0.06 0.09 0.15 0.18 0.15 0.10 0.07 0.04 0.02 0.02 0.01 0.01 0.00
0.00 0.00 0.00 0.00 0.00 0.00 0.00 0.00 0.00 0.00 0.00 0.00 0.00 0.00 0.00 0.01 0.02 0.03 0.05 0.06 0.08 0.09 0.09 0.09 0.08 0.08 0.07 0.06 0.05 0.05 0.08 0.13 0.16 0.16 0.13 0.09 0.07 0.04 0.03 0.02 0.02 0.01 0.00
0.00 0.00 0.00 0.00 0.00 0.00 0.00 0.00 0.00 0.00 0.00 0.00 0.00 0.00 0.00 0.01 0.02 0.04 0.06 0.08 0.10 0.12 0.13 0.14 0.14 0.12 0.10 0.09 0.08 0.10 0.12 0.13 0.14 0.13 0.10 0.07 0.05 0.04 0.04 0.05 0.02 0.01 0.01